Skip to main content Skip to accessibility
This website is not compatible with your web browser. You should install a newer browser. If you live in Jersey and need help upgrading call the States of Jersey web team on 440099.
Homegov.je

Information and public services for the Island of Jersey

L'înformâtion et les sèrvices publyis pouor I'Île dé Jèrri

  • Choose the service you want to log in to:

  • gov.je

    Update your notification preferences

  • one.gov.je

    Access government services

  • CAESAR

    Clear goods through customs or claim relief

  • Talentlink

    View or update your States of Jersey job application

Local METARs

METAR EGJJ 212150Z AUTO 22014KT 9999 NCD 08/05 Q1026

METAR EGJB 212150Z 22020KT 9999 SCT015 08/06 Q1026

METAR LFRD 212200Z AUTO 21010KT CAVOK 07/04 Q1028 NOSIG

METAR LFRC 212200Z AUTO 22018KT CAVOK 07/05 Q1025

 

 

 

​Times are in Greenwich Mean Time (GMT) and not British Summer Time (BST). They will be one hour different during BST.

Back to top
rating button